Theta_e
334 335 340 345 348 348 351 354 356 355 356 358 358 357 358 359 360 362 363 365 366 366 366 366 366 365 364 364 364 367 366 367 367 366 365 364 363 363 364 366 367 367 363 361 364 363 366 368 366 365 367 370 370 368 369 371 370 369 370 370 369 367 366
332 332 335 341 345 349 351 355 357 356 357 358 359 359 358 359 360 361 365 367 367 366 366 366 366 365 364 364 366 366 367 367 368 368 367 366 366 365 364 366 367 367 367 364 363 367 367 367 367 366 366 369 371 371 368 370 372 371 368 369 368 368 367
332 332 334 336 342 348 351 354 357 357 358 358 360 359 359 361 362 364 365 367 367 368 368 368 368 366 367 367 365 365 367 367 367 367 367 364 365 363 365 366 366 365 367 366 365 365 368 367 369 369 368 368 369 371 369 369 371 370 368 369 368 367 367
333 331 333 339 346 351 352 354 356 357 357 358 360 360 360 363 363 365 365 367 368 368 368 368 368 367 367 365 364 365 366 368 368 367 366 366 366 366 365 365 366 366 366 366 364 363 364 368 368 370 371 369 370 370 370 368 368 369 367 368 366 367 368
334 335 333 336 342 348 351 352 355 357 357 358 361 363 363 363 363 364 366 368 368 367 369 369 367 367 366 366 365 365 366 368 368 368 368 367 367 368 366 363 364 365 364 366 368 367 367 367 368 370 370 371 370 370 370 369 368 369 368 368 366 365 365
329 333 333 334 339 346 350 352 353 356 356 357 359 361 362 363 363 363 364 366 367 367 370 369 368 367 366 365 364 365 367 368 369 370 369 367 368 366 366 365 363 365 363 364 366 366 367 366 367 369 368 369 368 366 367 368 367 368 369 368 366 363 362
329 334 335 334 336 343 349 351 352 355 357 357 359 361 362 361 361 362 363 364 366 367 367 366 367 367 367 366 366 366 367 368 369 369 367 367 368 367 368 368 367 365 365 366 365 366 367 367 368 369 369 367 369 366 367 369 368 368 369 368 366 365 365
331 333 337 337 336 341 347 352 353 354 356 357 357 358 359 361 362 361 362 362 364 365 365 364 365 367 367 368 367 366 367 367 368 369 368 367 366 368 368 368 368 367 368 366 367 368 367 369 369 369 368 368 369 370 367 370 370 367 367 367 366 365 363
329 334 335 334 336 338 342 351 353 353 356 357 356 358 359 360 360 360 361 362 363 362 364 364 365 366 369 368 367 367 367 367 368 369 368 366 365 365 366 367 369 369 367 365 365 369 368 368 369 371 370 370 369 370 369 370 370 369 368 368 367 365 363
329 333 336 335 337 336 342 348 353 356 356 357 357 358 358 358 360 361 361 360 361 361 362 363 364 365 369 368 367 367 367 367 368 366 365 365 363 364 365 365 367 369 367 366 364 365 370 370 370 371 372 369 369 369 370 369 369 370 369 368 368 366 364
330 339 341 339 342 342 345 348 353 357 357 362 361 355 358 359 359 359 360 360 360 360 362 363 364 365 367 367 365 365 367 367 366 365 365 363 363 364 364 364 363 366 367 366 364 362 366 370 371 372 372 369 369 369 370 369 370 370 368 368 369 367 365
339 341 345 343 343 343 345 354 358 361 362 363 357 355 360 362 358 358 359 360 360 360 361 362 362 363 366 366 363 365 367 367 367 364 365 365 363 363 362 361 360 362 366 367 364 363 362 367 369 370 372 372 371 370 371 372 371 371 370 368 368 367 366
333 340 347 343 345 344 351 355 356 358 361 356 355 356 356 356 358 358 361 360 359 360 361 363 363 364 365 365 363 366 368 367 367 365 365 366 364 362 361 359 359 358 361 366 366 365 361 362 369 370 371 373 372 371 371 372 371 372 371 370 368 368 368
342 338 345 347 347 347 347 350 352 357 359 356 354 355 356 356 356 359 360 359 359 359 359 360 363 364 365 366 365 367 368 369 369 367 366 367 370 366 363 361 360 361 361 365 367 365 364 361 366 369 370 372 372 372 373 373 372 372 372 371 368 368 368
326 331 341 341 349 353 351 350 354 355 356 355 354 355 355 355 357 360 360 360 361 358 359 362 362 363 363 366 367 369 370 371 371 370 369 367 370 369 366 364 366 366 364 366 367 366 365 365 364 368 370 371 372 372 373 372 372 372 372 371 369 368 367
322 326 326 333 342 349 354 353 356 358 359 360 356 356 353 354 358 357 357 358 358 360 359 362 363 365 364 365 368 370 372 373 372 371 372 370 369 371 370 368 367 365 364 365 365 369 370 369 367 365 368 369 371 373 371 372 373 360 345 350 370 369 366
323 324 328 332 346 346 350 354 358 360 360 361 360 357 356 357 357 356 355 357 357 359 359 359 367 367 366 367 370 371 372 373 372 372 371 372 371 372 371 370 369 370 371 369 368 370 373 369 366 364 366 368 369 370 371 371 371 343 337 339 345 364 369
323 325 326 326 337 343 353 351 354 360 360 359 359 359 357 360 356 356 354 357 357 356 357 357 359 362 367 366 370 372 372 372 373 373 371 372 371 371 372 372 370 370 370 368 367 371 369 368 368 369 366 366 368 369 370 371 350 335 335 336 337 346 369
323 324 326 330 330 330 327 331 347 355 351 352 356 357 356 357 355 357 358 360 361 361 358 359 358 363 366 367 369 371 372 373 373 373 372 372 371 372 372 372 370 369 369 367 369 369 370 371 368 368 368 366 368 367 369 370 344 332 332 334 335 336 351
323 324 325 326 328 328 333 336 343 342 351 357 353 349 358 360 354 356 359 360 364 363 364 364 362 366 365 367 368 371 373 373 373 372 372 373 372 371 371 371 371 370 369 369 370 369 369 369 369 370 370 368 368 369 368 370 341 329 329 331 331 333 342
327 330 330 330 330 328 335 342 351 355 351 346 345 350 353 356 356 357 358 361 361 364 367 364 364 364 365 366 368 371 373 373 373 373 373 373 372 371 371 371 372 370 369 368 367 368 368 368 369 370 370 368 366 365 366 367 335 326 326 327 327 330 336
325 325 326 328 332 357 361 356 358 354 357 359 354 349 350 351 356 354 357 360 359 361 364 366 365 364 366 366 368 370 372 372 373 373 373 372 372 371 370 371 372 370 370 368 366 368 369 370 369 368 368 369 368 365 364 365 329 324 324 324 325 327 351
326 327 327 333 341 350 365 365 360 357 360 360 357 350 350 350 353 356 355 357 357 363 363 363 363 362 364 366 368 368 371 371 371 371 372 372 371 370 369 370 371 371 371 369 366 365 366 368 368 370 368 368 368 367 366 366 339 320 321 322 322 330 357
326 328 329 340 352 354 358 359 363 364 362 362 363 364 362 356 355 360 362 360 361 360 361 359 359 361 365 367 369 369 370 371 370 370 370 371 370 369 369 370 370 371 372 368 366 364 365 367 368 369 369 368 368 367 367 367 342 316 319 320 319 333 359
329 343 353 354 353 351 354 364 364 362 360 362 364 366 365 362 359 357 358 359 358 358 357 358 359 361 362 367 369 369 369 370 370 370 370 370 370 370 369 368 369 371 371 369 368 367 368 367 367 367 369 368 367 353 362 367 345 315 318 317 317 334 361
352 350 351 351 356 358 358 364 362 364 363 360 362 363 363 359 357 358 358 357 356 356 357 360 361 363 365 366 368 369 369 369 371 371 369 369 370 372 370 370 370 370 369 369 367 367 366 365 365 365 366 368 367 367 367 367 369 335 315 315 316 322 359
350 349 350 349 353 354 356 361 362 361 364 366 367 366 365 359 356 356 358 358 359 359 360 363 364 365 367 367 366 366 367 368 369 369 368 369 369 369 368 368 368 368 368 366 366 366 366 366 365 363 365 365 366 366 365 365 365 350 313 314 315 318 334
349 350 351 357 355 354 358 359 361 362 361 361 362 359 359 361 358 358 359 358 359 362 363 365 366 366 367 368 367 366 366 367 369 370 367 369 370 370 369 369 369 368 368 366 366 368 367 368 367 364 363 365 365 367 367 362 347 370 316 315 313 316 320
347 347 350 350 355 356 353 358 358 357 359 361 364 360 360 360 360 361 361 361 363 364 364 364 364 366 366 367 366 366 367 369 369 368 368 368 370 371 370 370 370 370 370 368 367 367 367 367 367 366 364 364 364 365 369 372 367 341 333 314 312 313 316
349 349 351 350 350 353 354 356 357 356 358 359 365 367 361 361 359 361 362 363 367 365 364 365 365 368 366 367 366 366 366 366 367 368 369 370 370 370 371 370 370 369 368 368 367 364 364 364 363 362 359 358 360 364 367 371 370 341 326 325 311 312 313
346 347 349 349 348 351 354 353 354 355 356 357 360 364 367 368 366 365 364 366 368 369 368 368 369 368 366 366 366 366 366 366 368 368 369 370 370 369 368 369 369 366 367 368 363 362 360 361 360 361 361 361 360 360 363 365 373 366 340 320 314 312 311
344 346 348 349 349 350 351 351 352 353 353 354 356 357 360 361 361 358 358 362 365 368 369 368 367 367 367 367 367 366 366 364 364 368 369 369 368 367 367 366 364 363 365 362 360 362 361 360 358 358 360 360 359 360 361 363 366 366 361 328 320 315 313
346 347 348 348 348 348 350 350 349 349 351 352 354 355 354 356 357 360 361 363 363 365 368 369 369 365 365 365 365 367 366 365 363 363 366 367 365 364 363 363 361 362 361 360 360 360 359 360 360 360 356 357 358 359 360 363 363 364 363 365 342 335 330
344 345 346 347 348 349 350 348 348 348 349 348 349 352 353 354 355 357 358 360 363 366 368 366 367 366 367 365 366 365 365 364 362 362 361 362 361 359 359 361 362 360 362 360 360 359 359 360 359 358 358 357 358 359 360 359 360 361 362 362 357 351 346
344 344 345 345 347 348 348 348 348 348 347 346 348 350 351 351 352 355 356 358 360 364 365 363 363 365 366 366 366 366 367 364 363 363 361 359 363 363 356 358 366 373 361 354 356 358 357 360 358 360 363 362 361 359 359 360 361 362 319 326 315 327 340
342 343 343 344 345 346 346 346 347 347 346 347 348 348 348 350 351 352 353 356 358 359 358 358 358 357 359 361 361 363 361 362 362 364 363 363 361 357 344 329 316 337 359 347 325 317 318 325 349 345 344 345 346 345 341 340 340 317 308 306 304 304 304
342 342 343 344 345 345 345 345 345 345 345 346 348 347 347 348 348 350 352 354 355 355 355 355 353 352 353 354 356 355 356 355 357 359 361 360 360 360 355 340 339 309 311 323 325 313 308 307 306 308 315 338 339 337 324 318 311 306 304 303 303 302 301
343 343 344 344 344 343 343 344 345 345 345 347 347 346 346 347 348 349 349 351 352 353 353 353 352 349 349 349 350 351 353 353 353 353 353 352 354 354 353 345 338 340 321 307 311 306 301 302 301 302 303 308 319 326 338 324 313 306 303 302 301 301 300
Wind_Speed
13 16 16 16 17 19 20 21 22 22 22 22 22 24 23 22 21 20 20 21 23 23 22 21 20 19 20 18 19 17 16 14 13 14 13 13 12 12 13 12 12 11 11 11 10 11 10 10 10 11 11 11 11 11 10 10 10 9 9 8 7 7 8
15 16 16 16 17 19 20 21 21 20 20 21 21 23 22 23 21 21 21 22 24 24 24 22 21 20 20 19 18 18 17 16 15 13 13 12 12 12 13 12 12 12 11 10 10 10 10 11 11 11 11 12 12 11 11 11 11 10 9 9 8 7 8
18 17 16 18 19 18 20 20 21 21 22 21 21 21 22 22 23 23 22 22 23 23 22 22 22 21 20 20 18 19 18 17 16 16 16 15 16 16 14 13 12 12 12 12 10 10 10 11 12 11 12 12 13 12 11 12 11 11 10 10 9 9 9
17 18 18 18 19 19 20 21 23 22 22 24 24 25 24 23 23 22 21 23 24 23 24 23 22 22 20 20 19 18 19 18 18 17 17 15 15 14 13 13 12 12 12 13 12 11 10 11 12 12 13 12 12 12 13 13 12 12 11 11 9 10 9
22 21 18 17 19 17 18 19 21 22 23 25 25 24 24 23 22 21 21 22 24 26 25 25 21 21 18 19 16 16 18 20 18 17 16 15 14 13 14 16 14 15 13 12 12 11 11 11 12 12 12 12 13 12 13 13 13 12 11 11 10 10 10
20 19 17 17 17 18 19 21 23 24 24 24 24 23 22 24 22 24 23 22 22 23 22 22 21 20 20 20 18 17 18 18 17 17 16 15 15 15 16 16 16 15 15 14 12 12 13 12 12 13 14 13 13 14 13 13 13 14 12 12 11 10 10
16 17 16 15 16 18 20 21 22 22 22 21 21 20 20 22 24 23 22 23 24 24 24 24 23 22 19 18 19 19 20 20 19 19 17 17 17 16 16 15 15 15 14 12 13 13 14 14 14 13 13 14 13 14 13 13 13 12 12 12 12 10 11
16 15 15 16 16 17 18 19 19 19 19 17 19 21 24 22 22 23 24 22 23 23 23 24 23 21 20 19 19 21 20 20 19 18 17 18 17 17 16 15 15 14 13 14 14 14 14 15 14 13 14 14 14 13 13 13 13 14 13 13 13 13 10
15 15 16 16 16 16 17 16 16 17 19 20 21 20 22 21 22 23 24 23 22 23 24 24 24 22 20 19 19 21 20 19 19 18 20 20 18 19 19 17 16 15 15 15 14 14 14 14 14 13 14 13 13 13 13 13 14 13 13 13 14 14 13
16 15 13 13 13 13 12 14 15 13 16 17 17 18 21 21 20 21 21 23 23 25 26 24 21 21 20 20 21 21 20 19 19 21 21 21 19 21 20 18 17 16 16 16 15 14 14 14 15 14 14 14 13 13 13 14 14 14 14 14 15 14 14
9 9 8 8 8 9 10 13 15 13 16 15 16 18 18 19 19 20 21 22 23 23 24 22 20 20 21 21 22 22 20 21 20 21 22 22 19 22 21 20 18 16 17 17 17 16 14 14 14 14 14 14 15 14 14 14 15 15 15 14 14 15 14
6 7 7 9 10 10 12 11 13 13 14 13 17 17 16 16 19 19 19 21 21 20 20 21 20 21 20 20 21 20 21 21 21 22 22 22 21 22 21 20 19 18 16 17 17 17 16 15 14 14 15 15 15 15 15 14 15 15 15 16 15 15 15
4 5 7 8 9 9 8 9 12 13 12 14 16 16 16 17 18 18 17 19 20 18 19 19 19 19 20 20 21 19 20 21 21 20 21 20 20 19 19 19 20 20 18 17 17 17 17 17 16 14 15 16 15 16 16 16 16 15 15 15 15 15 15
5 6 7 7 8 9 10 9 9 10 12 14 15 15 15 16 17 17 16 18 18 18 18 17 18 19 19 18 18 18 20 19 19 19 19 18 17 17 18 18 18 17 16 15 17 18 18 18 17 16 16 16 16 16 16 16 16 16 16 16 15 15 16
5 9 9 10 10 10 10 10 10 10 12 13 14 15 16 15 15 15 15 16 16 18 18 17 17 18 19 18 18 17 17 17 16 17 17 17 16 17 17 16 16 15 15 15 16 15 17 17 17 17 17 16 16 16 16 16 16 15 15 16 16 15 16
4 11 13 10 11 11 10 11 11 11 12 13 14 15 16 15 13 15 16 16 17 16 16 14 16 16 17 18 17 15 16 16 15 16 16 15 16 16 16 15 15 15 16 16 16 14 14 14 16 17 17 17 17 17 15 15 14 15 20 17 14 16 14
3 5 9 15 12 10 10 11 11 12 13 13 14 15 14 14 14 14 17 16 17 16 16 16 14 15 16 16 15 14 15 15 15 15 16 16 15 15 15 15 13 13 14 14 15 14 13 14 16 17 16 18 17 18 16 15 13 18 20 20 19 16 15
5 5 7 2 9 9 9 8 10 11 13 14 15 15 14 13 14 15 16 16 16 17 17 17 17 18 16 16 14 15 16 15 15 15 16 15 15 15 15 14 14 13 14 15 16 13 14 15 16 15 16 15 17 17 16 15 16 20 22 22 22 19 15
7 8 7 6 4 4 8 9 9 10 7 8 10 12 15 15 15 15 15 13 13 14 16 17 18 16 15 16 16 16 16 15 16 16 15 16 16 14 14 14 15 15 15 17 15 14 15 15 16 16 16 15 16 17 17 16 17 20 23 23 23 23 19
9 9 9 7 6 5 6 3 3 3 4 6 7 9 10 12 14 14 14 13 13 15 14 13 14 14 16 16 16 16 16 16 16 16 16 15 15 15 15 16 16 16 15 14 14 15 16 17 17 15 16 16 16 15 16 18 16 22 23 24 24 23 19
8 7 7 8 8 9 5 5 1 2 4 7 8 7 8 11 12 12 13 14 14 14 13 14 14 13 15 17 16 16 16 16 16 16 15 15 15 16 16 16 15 16 15 15 16 16 16 16 17 16 16 17 17 16 16 16 17 22 23 23 24 23 19
10 10 9 8 6 3 2 1 1 3 3 3 4 6 8 9 11 12 13 14 14 14 14 14 14 14 14 16 17 17 16 16 15 14 14 15 16 16 17 16 16 16 15 14 14 14 14 15 15 17 17 17 17 17 18 17 17 21 23 24 23 23 15
11 10 9 6 4 4 5 2 3 4 4 6 7 8 8 8 9 11 12 14 15 14 14 15 15 16 16 16 17 17 16 16 16 16 16 16 17 18 17 16 16 15 13 14 15 15 16 15 15 14 16 17 17 18 16 16 15 20 23 24 25 19 14
11 10 5 5 5 5 4 3 3 3 4 6 7 7 6 7 8 9 10 12 13 14 15 17 17 16 15 15 16 16 16 16 16 16 16 16 17 18 16 15 13 14 13 14 15 15 15 14 13 14 14 16 18 18 16 16 14 21 21 23 24 22 16
2 8 8 6 6 6 6 6 5 6 7 7 7 6 6 7 8 10 11 12 13 15 16 17 16 16 16 16 14 14 14 15 15 15 15 16 15 14 14 14 13 12 12 13 13 14 13 13 13 13 14 16 17 16 18 17 14 20 22 24 24 21 14
10 8 6 5 5 6 6 6 5 4 4 4 4 4 5 7 8 10 10 12 13 15 16 15 14 14 13 13 13 13 13 13 13 14 15 14 14 13 13 12 12 14 14 13 13 12 13 13 13 15 14 14 16 14 17 17 12 16 23 24 24 27 17
7 6 6 6 6 7 6 4 3 4 4 4 3 4 4 6 8 9 10 11 12 14 13 12 12 13 13 13 14 14 14 13 14 15 15 14 13 13 12 12 13 13 13 13 12 11 11 12 12 13 13 14 14 15 17 15 17 13 24 24 26 28 24
6 6 5 5 2 4 4 4 4 4 3 2 5 6 6 6 7 8 8 9 10 10 9 10 11 11 11 12 13 13 14 14 12 13 12 12 11 12 12 11 11 11 11 11 10 12 12 11 11 11 12 12 12 13 13 12 16 10 19 24 25 26 30
7 7 6 6 4 3 3 3 3 3 4 4 4 1 4 6 7 7 7 8 8 7 8 8 9 10 11 11 11 11 11 11 12 11 10 10 11 11 11 10 10 10 10 11 10 11 11 11 11 11 11 10 11 12 11 10 9 13 14 21 24 26 26
3 4 4 4 3 4 3 1 2 2 4 5 5 3 1 4 5 5 6 6 3 5 6 6 7 8 9 9 10 10 10 10 11 10 9 10 10 10 10 10 9 9 9 9 9 9 10 10 11 12 12 12 12 11 9 8 8 10 18 18 25 23 26
4 5 5 2 4 5 5 4 3 3 4 4 4 4 4 3 3 5 7 4 1 3 4 5 6 7 8 9 9 9 9 8 8 9 9 9 9 9 9 10 10 9 9 9 10 9 10 10 10 10 10 11 12 12 10 10 8 10 13 21 22 24 24
6 5 5 3 1 1 2 2 3 3 4 5 4 4 4 3 3 5 3 2 1 3 4 6 6 6 6 7 7 8 8 9 9 8 9 8 8 8 8 8 9 9 8 9 9 9 10 10 10 10 10 10 11 11 11 10 8 9 7 11 16 18 23
6 5 5 3 2 2 2 1 3 4 4 6 5 4 5 4 4 4 4 5 5 5 5 5 6 6 6 6 6 7 7 7 7 7 8 8 7 7 7 8 9 9 9 9 9 9 9 10 9 9 10 10 10 10 10 9 10 11 11 6 8 9 12
6 5 4 4 2 4 1 2 3 3 4 5 5 6 7 7 6 4 2 2 4 5 5 6 6 6 7 7 6 6 6 6 5 6 7 7 8 8 8 9 8 8 7 7 8 9 9 9 9 8 9 9 8 8 8 10 9 11 9 7 4 2 5
5 4 3 4 2 3 1 2 3 4 4 5 4 6 5 4 4 4 4 2 3 4 6 7 8 8 7 6 6 6 1 7 7 6 6 6 5 9 10 8 4 5 8 10 7 7 6 5 3 2 3 3 3 4 6 6 8 6 10 10 6 5 8
5 5 3 1 2 2 3 2 3 4 5 5 5 5 5 6 5 4 4 4 4 5 6 7 6 6 6 5 5 5 6 6 6 5 5 1 7 9 8 10 12 9 5 7 6 10 10 8 5 5 5 4 5 5 4 6 7 14 18 15 15 15 9
5 4 3 3 4 4 4 5 5 5 5 5 5 6 6 6 6 6 6 6 5 5 6 6 6 6 6 7 6 5 5 4 4 4 2 3 3 4 6 8 7 11 13 12 8 8 7 7 6 7 6 4 3 3 2 6 9 10 12 15 16 15 15
2 2 4 5 5 6 6 7 7 7 7 6 7 7 7 7 7 7 7 7 6 6 6 6 6 6 7 7 7 5 5 5 5 5 4 3 2 2 2 6 7 6 4 6 12 11 10 8 6 6 6 4 2 4 7 9 13 15 15 16 16 16 17
Wind_Direction
219 201 194 188 187 191 190 188 188 188 189 188 188 187 183 184 184 181 182 180 181 180 183 183 185 187 190 194 196 197 199 199 199 200 201 203 205 206 205 204 205 206 209 210 208 211 208 208 209 201 199 200 206 204 199 194 196 195 195 191 191 192 189
211 216 195 187 196 194 192 187 187 188 189 190 189 188 187 185 183 183 183 181 182 181 181 183 185 187 190 193 194 196 196 199 200 201 202 203 205 207 208 207 206 206 210 214 211 208 208 203 206 205 201 197 202 201 199 196 196 194 193 189 191 194 190
196 216 201 189 193 191 190 186 187 190 189 189 188 189 191 187 186 185 182 181 182 182 182 183 184 186 188 190 191 194 195 197 200 202 203 203 205 207 207 207 208 209 210 211 215 211 206 207 202 205 203 200 200 199 199 198 196 195 195 189 192 195 194
187 210 207 192 190 189 187 187 187 190 191 189 189 191 192 189 188 185 184 182 180 181 183 184 184 187 187 188 191 192 195 197 200 202 205 205 205 206 207 206 208 209 208 210 211 212 210 205 205 203 203 203 200 198 197 197 198 198 197 192 194 194 196
186 198 204 193 192 186 187 189 189 191 193 193 191 188 189 189 187 187 187 186 183 183 184 184 185 187 187 187 190 193 195 197 199 202 204 205 206 205 208 209 206 209 210 210 209 209 211 208 207 203 202 202 202 202 197 195 196 193 196 194 196 192 195
187 193 200 196 191 187 189 191 192 191 193 193 192 190 189 187 188 190 189 186 188 187 184 184 185 185 187 189 191 192 194 197 199 200 203 202 201 206 208 209 209 208 209 209 207 209 208 210 209 205 207 205 205 203 203 198 197 192 194 196 198 196 198
184 192 198 199 193 189 191 193 193 192 192 193 190 188 190 189 190 191 190 190 190 187 187 186 187 187 189 189 192 191 193 195 196 199 201 202 202 206 208 207 209 209 209 205 209 207 207 207 209 208 206 207 207 208 200 198 199 196 192 198 198 199 200
188 190 196 200 198 194 194 191 193 190 187 191 191 190 192 193 190 190 192 191 191 190 190 189 189 189 188 191 192 193 194 195 195 197 198 201 202 204 205 206 206 207 205 208 206 207 207 205 206 207 206 209 207 207 206 198 197 197 195 196 199 199 197
187 192 198 204 205 196 193 189 189 187 185 190 194 192 192 193 193 194 193 190 190 192 193 192 190 188 186 188 190 193 193 194 195 194 197 200 202 205 205 205 205 203 206 207 207 205 209 206 206 203 205 207 207 206 209 201 198 199 198 197 198 198 200
184 184 196 202 202 200 189 179 182 183 184 190 195 193 193 195 196 195 194 193 191 194 194 193 190 188 187 187 190 191 192 194 195 197 199 202 204 206 206 205 204 204 206 206 210 207 205 208 205 203 201 204 205 204 206 204 201 201 202 200 198 199 203
127 132 155 186 194 191 177 174 175 182 188 187 191 196 194 196 198 198 196 195 196 196 193 192 190 189 188 189 190 191 192 193 195 197 200 203 204 206 207 208 208 206 207 207 209 210 206 204 205 203 200 200 201 201 202 202 200 201 205 203 200 201 203
112 152 172 192 193 188 187 177 174 183 188 185 190 196 196 195 198 200 199 201 200 195 192 192 192 191 189 190 191 192 193 194 196 200 201 203 206 208 209 210 211 209 206 208 208 208 210 204 203 202 201 200 199 200 199 199 200 200 203 204 202 202 204
146 164 176 184 186 184 183 182 184 184 188 190 194 197 198 199 199 202 200 201 202 198 195 192 192 191 191 191 192 191 192 194 197 198 202 203 207 209 210 211 211 212 210 205 208 207 209 207 202 200 201 199 198 199 198 198 199 200 202 206 205 202 202
156 168 165 158 167 170 181 185 187 182 187 193 196 199 200 200 201 201 201 201 201 202 198 194 194 192 191 191 193 192 192 194 195 198 200 202 203 206 209 209 211 210 210 205 206 208 208 209 203 200 200 198 199 199 197 197 199 200 201 204 205 203 203
161 151 151 159 162 167 176 178 183 186 187 196 201 201 202 203 203 202 202 202 200 203 202 194 193 194 193 192 194 193 192 192 193 198 201 201 201 204 206 208 207 207 208 208 207 208 210 210 207 201 200 199 199 199 198 199 199 199 200 202 203 204 204
197 171 156 160 164 167 174 177 177 187 186 191 199 199 201 203 205 204 203 202 201 204 203 192 192 194 195 194 194 191 188 189 192 195 199 198 199 200 203 205 203 206 207 209 210 207 208 210 211 208 203 201 200 200 200 201 202 196 192 195 201 202 205
268 273 173 162 165 168 164 173 176 181 188 193 198 198 201 202 201 202 205 202 203 201 203 198 190 192 196 197 193 187 187 188 192 194 197 199 198 198 200 203 204 203 204 207 207 209 205 209 212 214 209 204 203 202 203 203 203 187 186 191 195 201 204
277 248 270 277 167 157 155 178 180 182 189 195 197 199 201 201 200 201 206 200 201 200 200 203 197 194 195 196 189 188 187 188 189 192 196 197 199 198 198 198 201 204 205 205 207 206 209 209 211 215 215 210 208 207 207 208 199 181 185 189 192 196 203
278 271 264 261 287 281 240 229 191 185 202 199 198 199 201 199 201 203 204 202 195 197 201 202 201 191 192 194 191 190 188 186 187 191 193 195 196 195 194 196 200 204 203 206 204 203 208 210 208 212 214 216 212 212 211 214 193 182 185 189 192 195 200
272 266 258 260 282 299 317 350 312 266 201 206 215 217 204 202 205 204 199 200 192 197 201 199 201 192 190 192 195 191 188 187 187 190 191 191 189 192 195 197 201 202 203 202 202 206 209 210 210 210 212 215 217 215 217 218 189 182 185 190 192 194 197
268 283 287 284 268 268 294 314 354 234 239 238 239 224 213 206 207 200 198 197 199 195 196 197 199 195 190 193 194 191 190 189 189 190 188 187 189 191 197 200 201 201 201 202 204 205 207 210 211 212 213 214 216 219 220 224 187 181 184 188 190 193 197
273 279 281 283 306 53 64 330 303 302 309 312 252 230 221 217 206 202 198 195 200 197 196 195 197 197 190 194 194 193 190 189 189 188 187 188 191 194 199 200 200 200 200 204 208 209 210 211 215 215 215 215 216 219 222 223 185 182 183 187 189 188 196
267 270 270 293 334 356 40 27 306 288 276 256 256 254 243 229 212 206 199 195 199 197 195 196 197 198 194 194 194 194 192 191 191 190 191 191 193 198 200 199 200 202 199 205 209 210 211 214 213 216 217 216 217 219 222 226 186 181 184 186 185 181 198
256 253 286 351 4 342 322 320 310 274 264 265 254 251 255 246 223 203 201 197 195 196 197 199 200 197 194 195 194 194 194 194 194 193 193 195 198 200 200 201 201 203 200 205 210 213 216 215 217 219 220 221 222 219 222 228 187 180 184 187 182 184 194
121 48 45 26 350 331 337 347 335 307 287 273 263 246 230 238 231 209 204 199 196 198 200 203 201 196 196 195 194 194 195 196 198 198 197 200 202 201 201 202 202 204 202 208 211 217 219 219 220 221 221 223 225 216 219 227 206 178 183 186 183 188 196
18 19 14 6 18 5 338 323 302 287 272 258 252 246 219 217 219 213 204 199 197 201 204 204 202 199 198 196 193 193 194 195 194 197 199 200 200 200 201 199 201 203 204 208 212 214 218 219 223 225 225 225 227 225 221 225 220 177 185 183 185 190 194
7 4 353 340 8 342 306 306 336 335 328 335 317 286 246 212 211 210 204 199 201 205 205 200 199 197 196 194 193 193 192 193 195 196 199 200 200 202 202 202 204 205 206 210 212 216 218 221 225 228 231 232 232 237 236 233 234 186 184 185 186 193 196
347 346 6 26 347 307 314 332 354 330 325 259 235 222 222 211 208 206 193 197 203 205 206 200 196 195 196 194 194 193 192 195 194 195 199 199 197 198 202 203 205 206 206 211 211 214 216 217 224 229 233 233 233 241 239 228 219 195 186 187 190 193 201
334 328 330 321 325 12 326 353 345 358 342 349 356 192 204 197 197 195 189 195 200 202 204 200 189 186 190 191 194 194 193 192 191 191 195 196 195 196 198 198 203 203 205 209 214 214 216 219 224 232 237 242 244 242 239 239 232 181 176 191 192 195 201
329 295 291 295 357 3 360 40 349 18 20 14 6 358 183 183 177 180 177 165 144 192 181 182 177 178 182 183 188 189 192 190 191 191 193 192 191 194 195 202 202 204 208 207 211 216 220 230 235 238 243 244 246 246 251 245 242 189 180 185 194 196 202
330 329 310 325 355 1 350 38 41 31 61 48 35 31 31 87 134 140 144 105 81 101 128 152 165 171 181 178 181 183 188 188 188 188 190 185 189 190 194 199 202 212 212 217 226 230 236 237 239 238 243 246 246 250 248 247 238 245 183 184 189 199 202
299 280 278 285 271 338 353 63 56 70 93 96 80 81 73 85 112 143 130 158 184 171 151 170 165 166 174 172 173 176 178 183 183 182 183 186 190 193 197 206 209 212 212 219 223 226 233 237 241 243 243 245 250 250 252 248 262 261 238 173 191 197 204
289 287 318 315 342 281 269 54 92 76 74 72 65 73 93 102 108 117 154 163 178 173 176 159 155 153 161 158 160 162 173 174 178 178 179 186 192 196 206 211 210 209 214 221 228 228 226 232 234 241 245 250 252 254 256 252 257 256 259 208 169 195 205
276 272 269 304 313 276 268 144 106 109 89 78 85 64 50 42 40 40 43 124 136 137 149 145 149 148 143 147 149 151 159 163 156 172 174 181 195 202 202 200 209 216 212 226 234 234 230 231 235 238 246 253 253 265 270 270 263 259 264 301 29 272 214
279 276 280 258 284 298 107 106 96 92 99 95 75 71 83 98 108 92 75 59 80 115 95 82 83 97 91 82 93 56 88 158 151 185 190 165 139 60 42 32 52 56 77 55 48 42 38 29 12 298 284 284 312 318 307 301 297 303 358 330 324 301 297
251 251 241 266 231 230 107 85 101 95 93 103 95 98 101 95 87 80 89 94 89 98 111 113 99 107 113 95 72 107 87 93 62 45 17 74 121 97 67 39 43 32 45 76 45 53 48 34 40 20 15 359 8 12 339 318 320 329 325 325 321 312 286
236 215 203 185 179 151 136 125 124 119 112 96 95 94 88 86 81 79 80 83 88 95 97 109 113 114 112 115 99 102 107 95 65 40 53 108 148 127 118 93 52 38 60 81 103 101 99 87 89 67 41 47 29 356 244 247 278 297 307 315 313 306 303
182 167 154 166 152 140 139 137 125 115 106 105 97 92 89 85 77 75 79 81 88 98 104 105 105 102 102 112 117 95 100 103 113 127 123 75 73 115 144 104 95 88 52 100 129 138 138 138 127 135 136 173 236 340 336 339 338 328 321 312 308 304 304